sat.trackr.live / text

‹ back to catalog

JY1SAT (JO-97)

NORAD 43803 · 2018-099AX

PAYLOAD ACTIVE UNKNOWN

§ Identity

Operator
Country
JOR
Launch date
2018-12-03
Launch site
AFWTR
Launch vehicle
Mass (kg)
RCS (m²)

Purposes: comms

External: N2YO · Heavens-Above · Gunter

§ Orbital elements

Epoch: 2026-05-25T02:57:29.246688Z

Period
93.95 min
Inclination
97.4146°
Eccentricity
0.0005078
Mean motion
15.32808116 rev/d
Perigee alt
464.0 km
Apogee alt
470.9 km
Semi-major
6,845.6 km
B*
5.4389e-4
RAAN
207.8899°
Arg perigee
10.2287°
Mean anomaly
349.9057°
Rev number
41,009

§ Raw data

JY1SAT (JO-97)1 43803U 18099AX  26145.12325517  .00017180  00000+0  54389-3 0  99972 43803  97.4146 207.8899 0005078  10.2287 349.9057 15.32808116410090

JSON: /api/v1/satellites/43803 · /tle

For live sub-satellite position, see the globe view (requires WebGL).

§ Visibility from observer

Set your observer location to see the next 7 days of passes ≥ 10°. The values pass through the URL so the page stays shareable.

No JS? Fill the form by hand. The geolocation button needs JavaScript.

§ Radio — SatNOGS DB

ModeDescriptionDownlinkUplink
BPSK BPSK1k2 TLM 145.840 MHz
CW U/V CW Transponder 145.855 MHz–145.875 MHz 435.100 MHz–435.120 MHz
USB U/V SSB Transponder 145.855 MHz–145.875 MHz 435.100 MHz–435.120 MHz

3 transmitters · refreshed weekly from db.satnogs.org